星链-35516(STARLINK-35516)

导读

STARLINK-35516是美国太空探索技术公司SpaceX于2025年10月8日发射的星链(Starlink)系列低轨通信卫星,隶属于Starlink Group 11-17任务组。星链星座旨在为全球提供高速低延迟宽带互联网服务,该卫星采用平板设计,搭载氪工质霍尔推进器,具备自主避撞能力,寿命末期会主动离轨再入大气层烧毁。

Basic Information
目录编号:
65918
目录名称:
STARLINK-35516
国际标识:
2025-225J
轨道中心:
EARTH
卫星名称:
星链-35516
卫星全名:
星链-35516(STARLINK-35516)
卫星状态:
在轨 (已飞行331 天)
发射日期:
2025-10-08 UTC
国别 :
美国 (US)
星等 :
--
Orbit Information
数据来源 国际轨道数据 AOE轨道数据
星历时间 2026-09-03T16:00:02+0800
20小时前
查看轨道信息
2026-09-03T12:00:00+0800
1天前
查看轨道信息
半长轴 6840.935km 6840.854km
偏心率 0.0001285 0.0001577
轨道倾角 53.162° 53.163°
近地点辐角 87.206° 80.917°
升交点赤经 60.122° 60.904°
平近点角 215.525° 20.538°
近地点 461.918km 461.638km
远地点 463.678km 463.796km
周期 93.850分钟 93.848分钟
每日圈数 15.343684 15.343954
Detailed Information
固有亮度:
5
最大亮度:
2.5
卫星平台:
Starlink V1.0
覆盖范围:
全球
运营商:
太空探索技术公司
运营商所在国:
美国
制造商(研发单位):
太空探索技术公司
制造商所在国:
美国
使用方式:
暂无
Satellite Introduction
Starlink 计划是 SpaceX 推出的全球卫星互联网项目,通过发射低轨道卫星,为全球尤其是偏远地区提供高速、低延迟的互联网服务。自 2019 年起,Starlink 已部署数千颗卫星,旨在缩小全球数字鸿沟,推动互联网普及。该项目还为军事、航空等行业提供通信支持,带来广泛经济效益。
2D Orbit Map
3D Orbit Map
Orbit Altitude Analysis Chart
Orbit Inclination Analysis Chart
Orbit Comprehensive Analysis Chart
View Comprehensive Chart
Conjunction Data List
Event ID Objects TCA Miss Dist (km) Collision Risk Probability Collision Risk Index (CRI) Action
CDM_260904-081206-591806-607721
2026-09-04T
08:12:04+0000
1.043 km
极远距离
1.479124E-5 中风险 0.58
CDM_260904-164706-477506-591821
2026-09-04T
16:47:35+0000
1.437 km
极远距离
4.799946E-6 低风险 0.49
CDM_260905-012306-477506-591821
2026-09-05T
01:23:27+0000
1.561 km
极远距离
3.694534E-6 低风险 0.46
CDM_260903-202806-591806-607721
2026-09-03T
20:28:37+0000
1.622 km
极远距离
3.37662E-6 低风险 0.46
CDM_260830-182206-591806-931221
2026-08-30T
18:22:00+0000
1.957 km
极远距离
3.016329E-6 低风险 0.45
CDM_260905-113106-370006-591821
2026-09-05T
11:31:16+0000
1.960 km
极远距离
1.636773E-6 低风险 0.39
CDM_260827-213106-524606-591821
2026-08-27T
21:31:55+0000
2.697 km
极远距离
1.542966E-6 低风险 0.39
CDM_260904-005505-245906-591821
2026-09-04T
00:55:38+0000
2.298 km
极远距离
1.463665E-6 低风险 0.38
CDM_260905-025706-477506-591821
2026-09-05T
02:57:14+0000
2.433 km
极远距离
1.221E-6 低风险 0.37
CDM_260903-220206-591806-607721
2026-09-03T
22:02:24+0000
2.690 km
极远距离
1.06333E-6 低风险 0.36